SXS8CP LTAU-EDDS

Flight info

Callsign SXS8CP
Flight time N/A
Altitude 36000
Route SARIZ1C/25 SARIZ DCT KUBER DCT BAG DCT KIZIK DCT YAVRU DCT NAMAN DCT RIXEN DCT VABUR DCT GONGO DCT BULEN DCT PEMOK DCT SODGO DCT INGOP DCT TONDO DCT NOHAT DCT INLOX DCT TURBU DCT GESLU DCT IBIRU
Aircraft B738/M-SDE2E3FGHIRWXY/LB1

Departure

Time 2026-05-04 12:28
Airport Kayseri Erkilet International Airport (LTAU)

Arrival

Time N/A
Airport Stuttgart Airport (EDDS)
Time Latitude Longitude Altitude Speed Heading
2026-05-04 12:07 38.76633 35.48537 3467 ft 0 kts 165°
2026-05-04 12:07 38.76631 35.48536 3467 ft 0 kts 167°
2026-05-04 12:21 38.76639 35.48534 3467 ft 4 kts 169°
2026-05-04 12:22 38.76666 35.48530 3466 ft 4 kts 184°
2026-05-04 12:22 38.76691 35.48537 3467 ft 4 kts 208°
2026-05-04 12:22 38.76708 35.48557 3467 ft 2 kts 255°
2026-05-04 12:22 38.76709 35.48560 3467 ft 0 kts 257°
2026-05-04 12:25 38.76709 35.48559 3467 ft 1 kts 257°
2026-05-04 12:25 38.76702 35.48520 3467 ft 8 kts 257°
2026-05-04 12:25 38.76688 35.48429 3467 ft 11 kts 266°
2026-05-04 12:25 38.76678 35.48333 3467 ft 11 kts 257°
2026-05-04 12:26 38.76661 35.48242 3467 ft 10 kts 256°
2026-05-04 12:26 38.76644 35.48154 3466 ft 10 kts 256°
2026-05-04 12:26 38.76664 35.48110 3468 ft 2 kts 347°
2026-05-04 12:26 38.76674 35.48107 3469 ft 1 kts 347°
2026-05-04 12:27 38.76693 35.48102 3469 ft 6 kts 347°
2026-05-04 12:27 38.76744 35.48094 3469 ft 8 kts 14°
2026-05-04 12:27 38.76788 35.48205 3469 ft 30 kts 76°
2026-05-04 12:27 38.76894 35.48769 3465 ft 98 kts 76°
2026-05-04 12:28 38.77105 35.49875 3461 ft 156 kts 76°
2026-05-04 12:28 38.77395 35.51365 3669 ft 185 kts 79°
2026-05-04 12:28 38.77698 35.52994 4401 ft 190 kts 79°
2026-05-04 12:28 38.78014 35.54690 5094 ft 199 kts 82°
2026-05-04 12:29 38.78352 35.56442 5661 ft 210 kts 82°
2026-05-04 12:29 38.78722 35.58341 5918 ft 227 kts 82°
2026-05-04 12:29 38.79135 35.60351 6343 ft 237 kts 74°
2026-05-04 12:29 38.80057 35.62144 6802 ft 251 kts 40°
2026-05-04 12:30 38.81702 35.63052 7124 ft 274 kts
2026-05-04 12:30 38.83633 35.62680 7465 ft 291 kts 341°
2026-05-04 12:30 38.85612 35.61952 8131 ft 297 kts 343°
2026-05-04 12:30 38.87617 35.61265 8899 ft 302 kts 343°
2026-05-04 12:31 38.89547 35.60220 9593 ft 303 kts 319°
2026-05-04 12:31 38.91033 35.58338 10344 ft 301 kts 307°
2026-05-04 12:31 38.92412 35.56200 10612 ft 322 kts 306°
2026-05-04 12:31 38.93857 35.53904 10817 ft 345 kts 305°
2026-05-04 12:32 38.95397 35.51464 11390 ft 356 kts 306°
2026-05-04 12:32 38.98555 35.46516 13074 ft 358 kts 307°
2026-05-04 12:32 39.00156 35.44033 13709 ft 363 kts 307°
2026-05-04 12:33 39.01776 35.41518 14303 ft 367 kts 307°
2026-05-04 12:33 39.03409 35.38980 14969 ft 369 kts 307°
2026-05-04 12:33 39.04976 35.36360 15594 ft 370 kts 301°
2026-05-04 12:33 39.06345 35.33550 16207 ft 372 kts 297°
2026-05-04 12:34 39.07645 35.30644 16828 ft 375 kts 296°
2026-05-04 12:34 39.08931 35.27708 17451 ft 379 kts 296°
2026-05-04 12:34 39.10236 35.24739 18068 ft 382 kts 296°
2026-05-04 12:34 39.11550 35.21782 18538 ft 388 kts 297°
2026-05-04 12:35 39.12907 35.18760 19048 ft 391 kts 297°
2026-05-04 12:35 39.14279 35.15726 19594 ft 393 kts 297°
2026-05-04 12:35 39.15669 35.12665 20111 ft 397 kts 298°
2026-05-04 12:35 39.17072 35.09581 20610 ft 400 kts 298°
2026-05-04 12:36 39.18488 35.06473 21110 ft 403 kts 298°
2026-05-04 12:36 39.19917 35.03336 21599 ft 406 kts 297°
2026-05-04 12:36 39.21354 35.00176 22093 ft 410 kts 297°
2026-05-04 12:36 39.22786 34.97027 22527 ft 414 kts 297°
2026-05-04 12:37 39.24252 34.93796 22933 ft 419 kts 297°